Zurück zum Katalog

COSMOS 839 DEB

AktivUNKNOWN
NORAD 10466·DEBRIS·🇷🇺 Russia

Gestartet Jul 8, 1976 von Plesetsk Cosmodrome

Loading…

Nächste Überflüge (nächste 24 Stunden)

TLE

AktuellSource: Space-Track

Epoche: Sep 14, 2026, 14:10 UTC

1 10466U 76067AK  26257.59076654  .00000118  00000-0  46311-3 0  9995
2 10466  65.8325 237.0571 0703331 124.1411 348.8492 12.50191879282951

Verfolge COSMOS 839 DEB in Echtzeit mit AllMySat

Download on the App Store